Weather History for Albion, NE

Change the Weather History Date:

Monday, March 26, 2012

  Actual Average (KOFK) Record (KOFK)
Temperature  
Mean Temperature 70 °F 41 °F  
Max Temperature 84 °F 53 °F 86 °F (2012)
Min Temperature 56 °F 30 °F -4 °F (1965)
Degree Days  
Heating Degree Days 0 24  
Month to date heating degree days 744  
Since 1 July heating degree days 5837  
Cooling Degree Days 5 0  
Month to date cooling degree days 0  
Year to date cooling degree days 0  
Growing Degree Days 20 (Base 50)    
Moisture  
Dew Point 51 °F    
Average Humidity 56    
Maximum Humidity 78    
Minimum Humidity 26    
Precipitation  
Precipitation 0.00 in 0.07 in 1.01 in (1959)
Month to date precipitation 1.39  
Year to date precipitation 2.74  
Snow  
Snow 0.00 in 0.10 in - ()
Month to date snowfall 4.3  
Since 1 July snowfall 27.1  
Snow Depth -    
Sea Level Pressure  
Sea Level Pressure 29.82 in    
Wind  
Wind Speed 13 mph (SE)    
Max Wind Speed 34 mph    
Max Gust Speed 43 mph    
Visibility 10 miles    
Events      
T = Trace of Precipitation, MM = Missing Value Source: NWS Daily Summary

Daily Weather History Graph

Daily Weather History Graph

Search for Another Location

Airport:

Trip Planner

Search our weather history database for the weather conditions in past years. The results will help you decide how hot, cold, wet, or windy it might be!

Date:

Astronomy

Mar. 26, 2012 Rise Set
Actual Time 7:24 AM CDT 7:51 PM CDT
Civil Twilight 6:56 AM CDT 8:19 PM CDT
Nautical Twilight 6:23 AM CDT 8:52 PM CDT
Astronomical Twilight 5:50 AM CDT 9:26 PM CDT
Moon 9:10 AM CDT (3/26) No Moon Set
Length of Visible Light 13h 23m
Length of Day
12h 27m
Waxing Crescent, 15% of the Moon is Illuminated
Mar 26
Waxing Crescent
Mar 30
First Quarter
Apr 6
Full
Apr 13
Last Quarter
Apr 21
New

Hourly Weather History & Observations

Time (CDT) Temp. Dew Point Humidity Pressure Visibility Wind Dir Wind Speed Gust Speed Precip Events Conditions
12:15 AM 58.3 °F 50.0 °F 74% 30.00 in 10.0 mi Calm Calm - N/A   Mostly Cloudy
12:35 AM 58.1 °F 50.2 °F 75% 29.99 in 10.0 mi East 4.6 mph - N/A   Overcast
12:55 AM 59.0 °F 50.2 °F 73% 29.99 in 10.0 mi East 3.5 mph - N/A   Overcast
1:15 AM 59.0 °F 50.4 °F 73% 29.99 in 10.0 mi ESE 3.5 mph - N/A   Overcast
1:35 AM 58.8 °F 50.0 °F 73% 29.99 in 10.0 mi East 3.5 mph - N/A   Mostly Cloudy
1:55 AM 57.4 °F 50.0 °F 76% 29.99 in 10.0 mi East 5.8 mph - N/A   Scattered Clouds
2:15 AM 57.2 °F 50.0 °F 77% 29.98 in 10.0 mi East 8.1 mph - N/A   Mostly Cloudy
2:35 AM 56.8 °F 50.0 °F 78% 29.98 in 10.0 mi East 8.1 mph - N/A   Overcast
2:55 AM 56.3 °F 49.5 °F 78% 29.98 in 10.0 mi East 6.9 mph - N/A   Overcast
3:15 AM 56.8 °F 49.6 °F 77% 29.97 in 10.0 mi ESE 5.8 mph - N/A   Mostly Cloudy
3:35 AM 57.6 °F 50.0 °F 76% 29.97 in 10.0 mi ESE 4.6 mph - N/A   Mostly Cloudy
3:55 AM 58.5 °F 50.0 °F 73% 29.96 in 10.0 mi ESE 6.9 mph - N/A   Mostly Cloudy
4:15 AM 59.0 °F 50.0 °F 72% 29.96 in 10.0 mi ESE 6.9 mph - N/A   Overcast
4:35 AM 59.0 °F 49.6 °F 71% 29.95 in 10.0 mi ESE 9.2 mph - N/A   Scattered Clouds
4:55 AM 59.0 °F 49.6 °F 71% 29.93 in 10.0 mi ESE 10.4 mph - N/A   Scattered Clouds
5:15 AM 58.5 °F 49.5 °F 72% 29.93 in 10.0 mi East 9.2 mph - N/A   Scattered Clouds
5:35 AM 58.3 °F 49.3 °F 72% 29.93 in 10.0 mi ESE 8.1 mph - N/A   Clear
5:55 AM 57.6 °F 49.3 °F 74% 29.93 in 10.0 mi ESE 8.1 mph - N/A   Clear
6:15 AM 57.6 °F 49.3 °F 74% 29.92 in 10.0 mi ESE 11.5 mph - N/A   Clear
6:35 AM 57.6 °F 49.3 °F 74% 29.92 in 10.0 mi ESE 11.5 mph - N/A   Clear
6:55 AM 57.4 °F 49.3 °F 74% 29.92 in 10.0 mi SE 9.2 mph - N/A   Clear
7:15 AM 56.8 °F 49.3 °F 76% 29.92 in 10.0 mi ESE 11.5 mph - N/A   Clear
7:35 AM 57.2 °F 49.3 °F 75% 29.91 in 10.0 mi ESE 12.7 mph - N/A   Clear
7:55 AM 57.4 °F 49.1 °F 74% 29.90 in 10.0 mi SE 10.4 mph - N/A   Clear
8:15 AM 58.1 °F 49.5 °F 73% 29.90 in 10.0 mi SE 12.7 mph 17.3 mph N/A   Clear
8:35 AM 58.8 °F 49.8 °F 72% 29.90 in 10.0 mi SE 10.4 mph - N/A   Clear
8:55 AM 60.1 °F 50.4 °F 70% 29.89 in 10.0 mi SE 11.5 mph - N/A   Clear
9:15 AM 61.7 °F 51.1 °F 68% 29.89 in 10.0 mi SE 11.5 mph - N/A   Clear
9:55 AM 66.6 °F 54.9 °F 66% 29.87 in 10.0 mi SSE 16.1 mph 25.3 mph N/A   Clear
10:15 AM 68.4 °F 55.4 °F 63% 29.86 in 10.0 mi SSE 23.0 mph 29.9 mph N/A   Clear
10:35 AM 69.1 °F 55.9 °F 63% 29.87 in 10.0 mi SSE 27.6 mph 31.1 mph N/A   Clear
10:55 AM 69.3 °F 55.0 °F 60% 29.86 in 10.0 mi SSE 27.6 mph 33.4 mph N/A   Clear
11:15 AM 70.7 °F 54.7 °F 57% 29.85 in 10.0 mi South 24.2 mph 31.1 mph N/A   Clear
11:35 AM 71.2 °F 54.0 °F 54% 29.85 in 10.0 mi South 24.2 mph 28.8 mph N/A   Clear
11:55 AM 71.6 °F 54.0 °F 54% 29.83 in 10.0 mi South 23.0 mph 29.9 mph N/A   Clear
12:15 PM 72.7 °F 53.8 °F 51% 29.82 in 10.0 mi South 25.3 mph 32.2 mph N/A   Clear
12:35 PM 73.9 °F 54.0 °F 50% 29.82 in 10.0 mi SSE 19.6 mph 28.8 mph N/A   Clear
12:55 PM 76.1 °F 53.4 °F 45% 29.80 in 10.0 mi South 21.9 mph 31.1 mph N/A   Clear
1:15 PM 77.0 °F 53.2 °F 44% 29.79 in 10.0 mi SSE 24.2 mph 32.2 mph N/A   Clear
1:35 PM 78.8 °F 52.2 °F 39% 29.78 in 10.0 mi SSE 27.6 mph 32.2 mph N/A   Clear
1:55 PM 80.8 °F 50.9 °F 35% 29.77 in 10.0 mi South 25.3 mph 33.4 mph N/A   Clear
2:15 PM 80.4 °F 50.5 °F 35% 29.76 in 10.0 mi South 25.3 mph 33.4 mph N/A   Clear
2:35 PM 81.7 °F 49.3 °F 32% 29.74 in 10.0 mi South 27.6 mph 36.8 mph N/A   Clear
2:55 PM 82.6 °F 48.6 °F 30% 29.72 in 10.0 mi South 27.6 mph 39.1 mph N/A   Clear
3:15 PM 83.1 °F 48.6 °F 30% 29.71 in 10.0 mi South 28.8 mph 35.7 mph N/A   Clear
3:35 PM 84.2 °F 48.2 °F 29% 29.70 in 10.0 mi South 27.6 mph 36.8 mph N/A   Clear
3:55 PM 84.6 °F 46.8 °F 27% 29.70 in 10.0 mi South 33.4 mph 40.3 mph N/A   Clear
4:15 PM 83.7 °F 46.0 °F 27% 29.69 in 10.0 mi South 29.9 mph 38.0 mph N/A   Clear
4:35 PM 84.0 °F 45.5 °F 26% 29.68 in 10.0 mi South 28.8 mph 42.6 mph N/A   Clear
4:55 PM 82.9 °F 45.3 °F 27% 29.68 in 10.0 mi South 34.5 mph 42.6 mph N/A   Clear
5:15 PM 82.2 °F 47.5 °F 30% 29.67 in 10.0 mi South 31.1 mph 39.1 mph N/A   Clear
5:35 PM 81.0 °F 49.6 °F 33% 29.66 in 10.0 mi South 27.6 mph 38.0 mph N/A   Clear
5:55 PM 79.9 °F 49.3 °F 34% 29.66 in 10.0 mi South 27.6 mph 36.8 mph N/A   Clear
6:15 PM 79.5 °F 50.4 °F 36% 29.66 in 10.0 mi South 25.3 mph 33.4 mph N/A   Clear
6:35 PM 78.8 °F 48.7 °F 35% 29.66 in 10.0 mi South 25.3 mph 34.5 mph N/A   Clear
6:55 PM 78.1 °F 49.3 °F 36% 29.66 in 10.0 mi South 24.2 mph 34.5 mph N/A   Clear
7:15 PM 77.9 °F 49.1 °F 36% 29.65 in 10.0 mi South 26.5 mph 38.0 mph N/A   Clear
7:35 PM 76.3 °F 52.9 °F 44% 29.63 in 10.0 mi SSE 31.1 mph 36.8 mph N/A   Clear
7:55 PM 74.8 °F 53.6 °F 47% 29.62 in 10.0 mi SSE 27.6 mph 38.0 mph N/A   Clear
8:15 PM 73.9 °F 53.6 °F 49% 29.63 in 10.0 mi South 25.3 mph 38.0 mph N/A   Clear
8:35 PM 73.0 °F 53.2 °F 50% 29.64 in 10.0 mi South 21.9 mph 31.1 mph N/A   Clear
8:55 PM 72.7 °F 53.4 °F 51% 29.65 in 10.0 mi South 24.2 mph 31.1 mph N/A   Clear
9:15 PM 72.0 °F 53.2 °F 52% 29.65 in 10.0 mi South 25.3 mph 36.8 mph N/A   Clear
9:35 PM 71.2 °F 53.6 °F 54% 29.65 in 10.0 mi South 25.3 mph 31.1 mph N/A   Clear
9:55 PM 70.3 °F 53.8 °F 56% 29.67 in 10.0 mi South 20.7 mph 29.9 mph N/A   Clear
10:15 PM 69.8 °F 55.0 °F 59% 29.66 in 10.0 mi South 23.0 mph 31.1 mph N/A   Clear
10:35 PM 69.1 °F 55.8 °F 62% 29.66 in 10.0 mi South 21.9 mph 32.2 mph N/A   Clear
10:55 PM 68.9 °F 56.5 °F 65% 29.65 in 10.0 mi South 21.9 mph 35.7 mph N/A   Clear
11:15 PM 68.4 °F 56.7 °F 66% 29.64 in 10.0 mi South 24.2 mph 35.7 mph N/A   Clear
11:35 PM 68.0 °F 56.5 °F 67% 29.64 in 10.0 mi South 23.0 mph 35.7 mph N/A   Clear
11:55 PM 68.0 °F 55.9 °F 65% 29.63 in 10.0 mi South 26.5 mph 38.0 mph N/A   Clear